| time (UTC) | temp F | wind direction | speed MPH | gust MPH | rain 1hr in | rain 24hr in | rain mn in | humidity % | barometer mb |
| 20260505140652 | 71 | 45 | 5.0 | 11.0 | 0.00 | 0.00 | 0.00 | 66 | 1008.8 |
| 20260505140504 | 71 | 292 | 5.0 | 11.0 | 0.00 | 0.00 | 0.00 | 67 | 1008.9 |
| 20260505140316 | 71 | 22 | 4.0 | 11.0 | 0.00 | 0.00 | 0.00 | 66 | 1008.9 |
| 20260505140135 | 70 | 45 | 4.0 | 7.0 | 0.00 | 0.00 | 0.00 | 63 | 1008.9 |
| 20260505130215 | 71 | 270 | 3.0 | 7.0 | 0.00 | 0.00 | 0.00 | 65 | 1009.1 |
| 20260505124915 | 68 | 292 | 3.0 | 5.0 | 0.00 | 0.00 | 0.00 | 62 | 1009.2 |
| 20260505124725 | 68 | 292 | 3.0 | 5.0 | 0.00 | 0.00 | 0.00 | 63 | 1009.3 |
| 20260505124540 | 67 | 292 | 3.0 | 5.0 | 0.00 | 0.00 | 0.00 | 65 | 1009.2 |
| 20260505124405 | 67 | 292 | 3.0 | 5.0 | 0.00 | 0.00 | 0.00 | 67 | 1009.3 |
| 20260505124225 | 67 | 315 | 3.0 | 5.0 | 0.00 | 0.00 | 0.00 | 68 | 1009.3 |
| 20260505124035 | 67 | 315 | 3.0 | 5.0 | 0.00 | 0.00 | 0.00 | 68 | 1009.4 |
| 20260505123857 | 67 | 292 | 3.0 | 5.0 | 0.00 | 0.00 | 0.00 | 68 | 1009.4 |
| 20260505123800 | 67 | 292 | 4.0 | 5.0 | 0.00 | 0.00 | 0.00 | 70 | 1009.4 |
| 20260505123705 | 67 | 292 | 4.0 | 5.0 | 0.00 | 0.00 | 0.00 | 68 | 1009.4 |
| 20260505123515 | 67 | 270 | 4.0 | 8.0 | 0.00 | 0.00 | 0.00 | 70 | 1009.5 |
| 20260505123325 | 67 | 270 | 4.0 | 8.0 | 0.00 | 0.00 | 0.00 | 70 | 1009.5 |
| 20260505123135 | 68 | 292 | 4.0 | 8.0 | 0.00 | 0.00 | 0.00 | 70 | 1009.4 |
| 20260505122935 | 68 | 270 | 3.0 | 6.0 | 0.00 | 0.00 | 0.00 | 70 | 1009.4 |
| 20260505122745 | 68 | 315 | 2.0 | 5.0 | 0.00 | 0.00 | 0.00 | 69 | 1009.5 |
| 20260505122605 | 68 | 292 | 2.0 | 5.0 | 0.00 | 0.00 | 0.00 | 70 | 1009.5 |
| 20260505122425 | 68 | 248 | 2.0 | 5.0 | 0.00 | 0.00 | 0.00 | 70 | 1009.5 |
| 20260505122235 | 68 | 225 | 2.0 | 5.0 | 0.00 | 0.00 | 0.00 | 70 | 1009.5 |
| 20260505122050 | 68 | 292 | 2.0 | 5.0 | 0.00 | 0.00 | 0.00 | 68 | 1009.6 |
| 20260505121849 | 68 | 292 | 3.0 | 6.0 | 0.00 | 0.00 | 0.00 | 67 | 1009.5 |
| 20260505121704 | 68 | 292 | 3.0 | 6.0 | 0.00 | 0.00 | 0.00 | 68 | 1009.6 |
| 20260505121525 | 68 | 22 | 3.0 | 6.0 | 0.00 | 0.00 | 0.00 | 69 | 1009.6 |
| 20260505121345 | 67 | 45 | 3.0 | 6.0 | 0.00 | 0.00 | 0.00 | 70 | 1009.6 |
| 20260505121150 | 67 | 270 | 2.0 | 5.0 | 0.00 | 0.00 | 0.00 | 69 | 1009.6 |
| 20260505121012 | 67 | 292 | 2.0 | 4.0 | 0.00 | 0.00 | 0.00 | 71 | 1009.7 |
| 20260505120830 | 67 | 292 | 2.0 | 5.0 | 0.00 | 0.00 | 0.00 | 69 | 1009.7 |
| 20260505120645 | 67 | 292 | 2.0 | 5.0 | 0.00 | 0.00 | 0.00 | 70 | 1009.7 |
| 20260505120510 | 67 | 292 | 2.0 | 5.0 | 0.00 | 0.00 | 0.00 | 71 | 1009.6 |
| 20260505120335 | 67 | 270 | 2.0 | 5.0 | 0.00 | 0.00 | 0.00 | 72 | 1009.7 |
| 20260505120155 | 67 | 248 | 2.0 | 3.0 | 0.00 | 0.00 | 0.00 | 72 | 1009.7 |
| 20260505120015 | 67 | 248 | 2.0 | 5.0 | 0.00 | 0.00 | 0.00 | 72 | 1009.7 |
| 20260505115838 | 67 | 270 | 2.0 | 5.0 | 0.00 | 0.00 | 0.00 | 71 | 1009.6 |
| 20260505115638 | 67 | 270 | 2.0 | 5.0 | 0.00 | 0.00 | 0.00 | 72 | 1009.6 |
| 20260505115500 | 67 | 202 | 2.0 | 3.0 | 0.00 | 0.00 | 0.00 | 72 | 1009.7 |
| 20260505115315 | 67 | 202 | 2.0 | 5.0 | 0.00 | 0.00 | 0.00 | 72 | 1009.6 |
| 20260505115120 | 67 | 202 | 2.0 | 5.0 | 0.00 | 0.00 | 0.00 | 72 | 1009.6 |
| 20260505115005 | 67 | 202 | 3.0 | 5.0 | 0.00 | 0.00 | 0.00 | 72 | 1009.7 |
| 20260505114928 | 68 | 202 | 3.0 | 5.0 | 0.00 | 0.00 | 0.00 | 73 | 1009.7 |
| 20260505114735 | 68 | 225 | 2.0 | 5.0 | 0.00 | 0.00 | 0.00 | 73 | 1009.7 |
| 20260505114535 | 68 | 202 | 2.0 | 5.0 | 0.00 | 0.00 | 0.00 | 73 | 1009.6 |
| 20260505114355 | 68 | 202 | 2.0 | 5.0 | 0.00 | 0.00 | 0.00 | 71 | 1009.5 |
| 20260505114155 | 68 | 202 | 1.0 | 3.0 | 0.00 | 0.00 | 0.00 | 70 | 1009.5 |
| 20260505113956 | 68 | 112 | 1.0 | 3.0 | 0.00 | 0.00 | 0.00 | 70 | 1009.5 |
| 20260505113820 | 68 | 112 | 1.0 | 2.0 | 0.00 | 0.00 | 0.00 | 72 | 1009.5 |
| 20260505113635 | 67 | 158 | 1.0 | 2.0 | 0.00 | 0.00 | 0.00 | 73 | 1009.5 |
| 20260505113433 | 67 | 158 | 1.0 | 2.0 | 0.00 | 0.00 | 0.00 | 72 | 1009.6 |
| 20260505113258 | 68 | 135 | 1.0 | 3.0 | 0.00 | 0.00 | 0.00 | 72 | 1009.6 |
| 20260505113237 | 68 | 315 | 1.0 | 3.0 | 0.00 | 0.00 | 0.00 | 72 | 1009.5 |
| 20260505113046 | 68 | 315 | 1.0 | 5.0 | 0.00 | 0.00 | 0.00 | 73 | 1009.6 |
| 20260505112905 | 68 | 315 | 1.0 | 5.0 | 0.00 | 0.00 | 0.00 | 72 | 1009.7 |
| 20260505112725 | 68 | 45 | 2.0 | 5.0 | 0.00 | 0.00 | 0.00 | 74 | 1009.7 |
| 20260505112535 | 68 | 45 | 2.0 | 5.0 | 0.00 | 0.00 | 0.00 | 74 | 1009.7 |
| 20260505112348 | 68 | 45 | 2.0 | 5.0 | 0.00 | 0.00 | 0.00 | 74 | 1009.7 |
| 20260505112210 | 68 | 45 | 2.0 | 5.0 | 0.00 | 0.00 | 0.00 | 71 | 1009.7 |
| 20260505112015 | 68 | 45 | 1.0 | 5.0 | 0.00 | 0.00 | 0.00 | 75 | 1009.8 |
| 20260505111650 | 67 | 45 | 1.0 | 5.0 | 0.00 | 0.00 | 0.00 | 76 | 1009.8 |
| 20260505111505 | 67 | 22 | 1.0 | 5.0 | 0.00 | 0.00 | 0.00 | 72 | 1009.8 |
| 20260505111431 | 67 | 22 | 1.0 | 5.0 | 0.00 | 0.00 | 0.00 | 72 | 1009.8 |
| 20260505111325 | 67 | 22 | 0.0 | 4.0 | 0.00 | 0.00 | 0.00 | 71 | 1009.8 |
| 20260505111130 | 67 | 225 | 1.0 | 4.0 | 0.00 | 0.00 | 0.00 | 70 | 1009.9 |
| 20260505110933 | 67 | 180 | 1.0 | 2.0 | 0.00 | 0.00 | 0.00 | 72 | 1009.9 |
| 20260505110749 | 67 | 248 | 1.0 | 4.0 | 0.00 | 0.00 | 0.00 | 72 | 1009.8 |
| 20260505110557 | 67 | 248 | 1.0 | 5.0 | 0.00 | 0.00 | 0.00 | 73 | 1009.8 |
| 20260505110409 | 67 | 248 | 1.0 | 5.0 | 0.00 | 0.00 | 0.00 | 73 | 1009.9 |
| 20260505110233 | 67 | 270 | 1.0 | 5.0 | 0.00 | 0.00 | 0.00 | 72 | 1009.9 |
| 20260505101905 | 65 | 68 | 3.0 | 5.0 | 0.00 | 0.00 | 0.00 | 80 | 1010.1 |
| 20260505101715 | 65 | 68 | 3.0 | 6.0 | 0.00 | 0.00 | 0.00 | 78 | 1010.2 |
| 20260505101520 | 65 | 90 | 2.0 | 6.0 | 0.00 | 0.00 | 0.00 | 78 | 1010.2 |
| 20260505101335 | 65 | 45 | 2.0 | 6.0 | 0.00 | 0.00 | 0.00 | 78 | 1010.1 |
| 20260505101156 | 65 | 270 | 1.0 | 2.0 | 0.00 | 0.00 | 0.00 | 77 | 1010.1 |
| 20260505101000 | 65 | 270 | 1.0 | 3.0 | 0.00 | 0.00 | 0.00 | 76 | 1010.1 |
| 20260505100810 | 65 | 270 | 1.0 | 3.0 | 0.00 | 0.00 | 0.00 | 76 | 1010.1 |
| 20260505100620 | 65 | 270 | 2.0 | 3.0 | 0.00 | 0.00 | 0.00 | 76 | 1010.1 |
| 20260505100445 | 65 | 202 | 2.0 | 2.0 | 0.00 | 0.00 | 0.00 | 74 | 1010.1 |
| 20260505100336 | 65 | 68 | 2.0 | 2.0 | 0.00 | 0.00 | 0.00 | 74 | 1010.1 |
| 20260505100300 | 65 | 68 | 2.0 | 2.0 | 0.00 | 0.00 | 0.00 | 74 | 1010.2 |
| 20260505100115 | 65 | 68 | 2.0 | 3.0 | 0.00 | 0.00 | 0.00 | 75 | 1010.1 |
| 20260505095930 | 65 | 68 | 2.0 | 5.0 | 0.00 | 0.00 | 0.00 | 75 | 1010.1 |
| 20260505095745 | 65 | 68 | 2.0 | 5.0 | 0.00 | 0.00 | 0.00 | 76 | 1010.0 |
| 20260505095555 | 65 | 68 | 2.0 | 5.0 | 0.00 | 0.00 | 0.00 | 75 | 1010.0 |
| 20260505095415 | 65 | 90 | 1.0 | 5.0 | 0.00 | 0.00 | 0.00 | 75 | 1010.0 |
| 20260505095222 | 65 | 45 | 1.0 | 4.0 | 0.00 | 0.00 | 0.00 | 77 | 1010.0 |
| 20260505095030 | 65 | 45 | 0.0 | 4.0 | 0.00 | 0.00 | 0.00 | 76 | 1010.0 |
| 20260505094836 | 64 | 225 | 0.0 | 2.0 | 0.00 | 0.00 | 0.00 | 78 | 1010.1 |
| 20260505094746 | 64 | 225 | 0.0 | 2.0 | 0.00 | 0.00 | 0.00 | 79 | 1010.1 |
| 20260505094643 | 64 | 225 | 0.0 | 2.0 | 0.00 | 0.00 | 0.00 | 79 | 1010.1 |
| 20260505094455 | 64 | 225 | 0.0 | 2.0 | 0.00 | 0.00 | 0.00 | 81 | 1010.2 |
| 20260505094305 | 64 | 225 | 1.0 | 2.0 | 0.00 | 0.00 | 0.00 | 81 | 1010.2 |
| 20260505094125 | 64 | 225 | 1.0 | 2.0 | 0.00 | 0.00 | 0.00 | 84 | 1010.1 |
| 20260505093940 | 63 | 225 | 1.0 | 2.0 | 0.00 | 0.00 | 0.00 | 83 | 1010.1 |
| 20260505093745 | 64 | 225 | 1.0 | 2.0 | 0.00 | 0.00 | 0.00 | 83 | 1010.1 |
| 20260505093550 | 64 | 225 | 1.0 | 2.0 | 0.00 | 0.00 | 0.00 | 81 | 1010.1 |
| 20260505093408 | 64 | 225 | 1.0 | 2.0 | 0.00 | 0.00 | 0.00 | 80 | 1010.2 |
| 20260505093209 | 64 | 158 | 1.0 | 2.0 | 0.00 | 0.00 | 0.00 | 82 | 1010.1 |
| 20260505093131 | 64 | 158 | 1.0 | 2.0 | 0.00 | 0.00 | 0.00 | 80 | 1010.1 |
| 20260505093015 | 64 | 158 | 1.0 | 2.0 | 0.00 | 0.00 | 0.00 | 79 | 1010.2 |
| 20260505092830 | 64 | 90 | 1.0 | 4.0 | 0.00 | 0.00 | 0.00 | 80 | 1010.2 |
| 20260505092640 | 64 | 68 | 1.0 | 4.0 | 0.00 | 0.00 | 0.00 | 82 | 1010.1 |
| 20260505092500 | 63 | 68 | 1.0 | 4.0 | 0.00 | 0.00 | 0.00 | 80 | 1010.2 |
| 20260505092310 | 63 | 112 | 1.0 | 3.0 | 0.00 | 0.00 | 0.00 | 78 | 1010.2 |
| 20260505092115 | 63 | 68 | 1.0 | 2.0 | 0.00 | 0.00 | 0.00 | 81 | 1010.2 |
| 20260505091933 | 63 | 68 | 1.0 | 3.0 | 0.00 | 0.00 | 0.00 | 81 | 1010.2 |
| 20260505091756 | 63 | 68 | 1.0 | 3.0 | 0.00 | 0.00 | 0.00 | 81 | 1010.1 |
| 20260505091606 | 63 | 68 | 2.0 | 3.0 | 0.00 | 0.00 | 0.00 | 79 | 1010.1 |
| 20260505091426 | 63 | 68 | 1.0 | 4.0 | 0.00 | 0.00 | 0.00 | 83 | 1010.2 |
| 20260505091245 | 63 | 68 | 1.0 | 4.0 | 0.00 | 0.00 | 0.00 | 83 | 1010.1 |
| 20260505091105 | 63 | 68 | 1.0 | 5.0 | 0.00 | 0.00 | 0.00 | 82 | 1010.2 |
| 20260505090922 | 62 | 68 | 1.0 | 5.0 | 0.00 | 0.00 | 0.00 | 82 | 1010.1 |
| 20260505090745 | 62 | 68 | 1.0 | 5.0 | 0.00 | 0.00 | 0.00 | 83 | 1010.2 |
| 20260505090549 | 62 | 68 | 1.0 | 5.0 | 0.00 | 0.00 | 0.00 | 83 | 1010.2 |
| 20260505090350 | 62 | 68 | 2.0 | 3.0 | 0.00 | 0.00 | 0.00 | 84 | 1010.2 |
| 20260505090155 | 62 | 68 | 2.0 | 3.0 | 0.00 | 0.00 | 0.00 | 83 | 1010.2 |
| 20260505090012 | 62 | 68 | 3.0 | 5.0 | 0.00 | 0.00 | 0.00 | 82 | 1010.2 |
| 20260505085825 | 62 | 68 | 2.0 | 5.0 | 0.00 | 0.00 | 0.00 | 84 | 1010.2 |
| 20260505085719 | 62 | 68 | 2.0 | 5.0 | 0.00 | 0.00 | 0.00 | 83 | 1010.3 |
| 20260505085623 | 62 | 68 | 2.0 | 5.0 | 0.00 | 0.00 | 0.00 | 82 | 1010.3 |
| 20260505085442 | 62 | 90 | 2.0 | 5.0 | 0.00 | 0.00 | 0.00 | 84 | 1010.2 |
| 20260505085304 | 62 | 90 | 2.0 | 5.0 | 0.00 | 0.00 | 0.00 | 82 | 1010.2 |
| 20260505085110 | 61 | 90 | 2.0 | 5.0 | 0.00 | 0.00 | 0.00 | 83 | 1010.2 |
| 20260505084915 | 61 | 90 | 2.0 | 5.0 | 0.00 | 0.00 | 0.00 | 82 | 1010.2 |
| 20260505084716 | 61 | 90 | 2.0 | 4.0 | 0.00 | 0.00 | 0.00 | 81 | 1010.2 |
| 20260505084537 | 61 | 90 | 2.0 | 5.0 | 0.00 | 0.00 | 0.00 | 83 | 1010.3 |
| 20260505084400 | 61 | 180 | 2.0 | 5.0 | 0.00 | 0.00 | 0.00 | 83 | 1010.3 |
| 20260505084219 | 61 | 90 | 2.0 | 5.0 | 0.00 | 0.00 | 0.00 | 83 | 1010.3 |
| 20260505084033 | 62 | 112 | 1.0 | 5.0 | 0.00 | 0.00 | 0.00 | 83 | 1010.3 |
| 20260505083943 | 62 | 112 | 1.0 | 5.0 | 0.00 | 0.00 | 0.00 | 82 | 1010.3 |
| 20260505083840 | 62 | 68 | 1.0 | 5.0 | 0.00 | 0.00 | 0.00 | 84 | 1010.2 |
| 20260505083640 | 61 | 68 | 1.0 | 2.0 | 0.00 | 0.00 | 0.00 | 84 | 1010.2 |
| 20260505083500 | 61 | 68 | 1.0 | 3.0 | 0.00 | 0.00 | 0.00 | 84 | 1010.2 |
| 20260505083307 | 61 | 68 | 2.0 | 3.0 | 0.00 | 0.00 | 0.00 | 86 | 1010.2 |
| 20260505083120 | 61 | 68 | 2.0 | 3.0 | 0.00 | 0.00 | 0.00 | 87 | 1010.2 |
| 20260505082919 | 61 | 68 | 2.0 | 6.0 | 0.00 | 0.00 | 0.00 | 85 | 1010.3 |
| 20260505082745 | 61 | 68 | 3.0 | 6.0 | 0.00 | 0.00 | 0.00 | 85 | 1010.3 |
| 20260505082634 | 61 | 68 | 3.0 | 6.0 | 0.00 | 0.00 | 0.00 | 84 | 1010.3 |
| 20260505082415 | 61 | 68 | 3.0 | 6.0 | 0.00 | 0.00 | 0.00 | 83 | 1010.3 |
| 20260505082241 | 61 | 90 | 2.0 | 5.0 | 0.00 | 0.00 | 0.00 | 83 | 1010.3 |
| 20260505082224 | 61 | 90 | 2.0 | 5.0 | 0.00 | 0.00 | 0.00 | 86 | 1010.3 |
| 20260505082035 | 61 | 68 | 3.0 | 5.0 | 0.00 | 0.00 | 0.00 | 84 | 1010.3 |
| 20260505081840 | 61 | 68 | 2.0 | 5.0 | 0.00 | 0.00 | 0.00 | 84 | 1010.3 |
| 20260505081645 | 61 | 68 | 3.0 | 5.0 | 0.00 | 0.00 | 0.00 | 81 | 1010.3 |
| 20260505081450 | 62 | 68 | 3.0 | 5.0 | 0.00 | 0.00 | 0.00 | 82 | 1010.3 |
| 20260505081255 | 62 | 68 | 3.0 | 5.0 | 0.00 | 0.00 | 0.00 | 81 | 1010.3 |
| 20260505081105 | 62 | 68 | 2.0 | 5.0 | 0.00 | 0.00 | 0.00 | 80 | 1010.4 |
| 20260505080925 | 62 | 90 | 2.0 | 5.0 | 0.00 | 0.00 | 0.00 | 82 | 1010.4 |
| 20260505080729 | 62 | 68 | 2.0 | 4.0 | 0.00 | 0.00 | 0.00 | 81 | 1010.5 |
| 20260505080627 | 62 | 90 | 2.0 | 5.0 | 0.00 | 0.00 | 0.00 | 80 | 1010.4 |
| 20260505080550 | 62 | 90 | 2.0 | 5.0 | 0.00 | 0.00 | 0.00 | 80 | 1010.4 |
| 20260505080405 | 62 | 68 | 3.0 | 5.0 | 0.00 | 0.00 | 0.00 | 79 | 1010.4 |
| 20260505080222 | 62 | 68 | 3.0 | 5.0 | 0.00 | 0.00 | 0.00 | 79 | 1010.4 |
| 20260505080040 | 62 | 68 | 3.0 | 5.0 | 0.00 | 0.00 | 0.00 | 78 | 1010.4 |
| 20260505075854 | 62 | 158 | 2.0 | 6.0 | 0.00 | 0.00 | 0.00 | 78 | 1010.5 |
| 20260505075710 | 62 | 68 | 3.0 | 6.0 | 0.00 | 0.00 | 0.00 | 79 | 1010.5 |
| 20260505075522 | 62 | 68 | 3.0 | 6.0 | 0.00 | 0.00 | 0.00 | 79 | 1010.5 |
| 20260505075345 | 62 | 112 | 3.0 | 5.0 | 0.00 | 0.00 | 0.00 | 78 | 1010.5 |
| 20260505075200 | 62 | 180 | 3.0 | 6.0 | 0.00 | 0.00 | 0.00 | 78 | 1010.5 |
| 20260505075006 | 61 | 180 | 4.0 | 6.0 | 0.00 | 0.00 | 0.00 | 78 | 1010.6 |
| 20260505074830 | 61 | 90 | 3.0 | 6.0 | 0.00 | 0.00 | 0.00 | 78 | 1010.5 |
| 20260505074758 | 61 | 112 | 3.0 | 6.0 | 0.00 | 0.00 | 0.00 | 78 | 1010.5 |
| 20260505074645 | 61 | 180 | 3.0 | 6.0 | 0.00 | 0.00 | 0.00 | 79 | 1010.5 |
| 20260505074500 | 61 | 68 | 4.0 | 6.0 | 0.00 | 0.00 | 0.00 | 79 | 1010.5 |
| 20260505074315 | 61 | 90 | 4.0 | 5.0 | 0.00 | 0.00 | 0.00 | 79 | 1010.5 |
| 20260505074133 | 61 | 112 | 5.0 | 7.0 | 0.00 | 0.00 | 0.00 | 78 | 1010.5 |
| 20260505073950 | 61 | 180 | 4.0 | 7.0 | 0.00 | 0.00 | 0.00 | 79 | 1010.4 |
| 20260505073756 | 61 | 68 | 4.0 | 7.0 | 0.00 | 0.00 | 0.00 | 80 | 1010.5 |
| 20260505073610 | 61 | 68 | 4.0 | 7.0 | 0.00 | 0.00 | 0.00 | 80 | 1010.4 |
| 20260505073410 | 61 | 112 | 4.0 | 7.0 | 0.00 | 0.00 | 0.00 | 80 | 1010.4 |
| 20260505073235 | 61 | 90 | 3.0 | 7.0 | 0.00 | 0.00 | 0.00 | 79 | 1010.4 |
| 20260505073055 | 61 | 90 | 3.0 | 7.0 | 0.00 | 0.00 | 0.00 | 79 | 1010.3 |
| 20260505073017 | 61 | 68 | 3.0 | 7.0 | 0.00 | 0.00 | 0.00 | 78 | 1010.3 |
| 20260505072910 | 61 | 90 | 3.0 | 7.0 | 0.00 | 0.00 | 0.00 | 79 | 1010.3 |
| 20260505072720 | 61 | 68 | 3.0 | 7.0 | 0.00 | 0.00 | 0.00 | 79 | 1010.2 |
| 20260505072522 | 61 | 68 | 3.0 | 7.0 | 0.00 | 0.00 | 0.00 | 79 | 1010.3 |
| 20260505072325 | 61 | 90 | 3.0 | 5.0 | 0.00 | 0.00 | 0.00 | 80 | 1010.3 |
| 20260505072125 | 61 | 90 | 3.0 | 5.0 | 0.00 | 0.00 | 0.00 | 79 | 1010.3 |
| 20260505071940 | 61 | 68 | 3.0 | 5.0 | 0.00 | 0.00 | 0.00 | 79 | 1010.2 |
| 20260505071741 | 61 | 68 | 3.0 | 5.0 | 0.00 | 0.00 | 0.00 | 79 | 1010.2 |
| 20260505071549 | 61 | 68 | 3.0 | 5.0 | 0.00 | 0.00 | 0.00 | 79 | 1010.3 |
| 20260505071410 | 61 | 68 | 3.0 | 7.0 | 0.00 | 0.00 | 0.00 | 80 | 1010.2 |
| 20260505071224 | 61 | 68 | 3.0 | 7.0 | 0.00 | 0.00 | 0.00 | 80 | 1010.3 |
| 20260505071040 | 61 | 68 | 3.0 | 5.0 | 0.00 | 0.00 | 0.00 | 79 | 1010.2 |
| 20260505070843 | 61 | 68 | 4.0 | 5.0 | 0.00 | 0.00 | 0.00 | 80 | 1010.2 |
| 20260505070658 | 61 | 45 | 4.0 | 6.0 | 0.00 | 0.00 | 0.00 | 81 | 1010.3 |
| 20260505070500 | 61 | 90 | 4.0 | 6.0 | 0.00 | 0.00 | 0.00 | 80 | 1010.3 |
| 20260505070310 | 61 | 90 | 4.0 | 6.0 | 0.00 | 0.00 | 0.00 | 81 | 1010.3 |
| 20260505070108 | 61 | 68 | 3.0 | 6.0 | 0.00 | 0.00 | 0.00 | 81 | 1010.3 |
| 20260505065930 | 61 | 68 | 3.0 | 6.0 | 0.00 | 0.00 | 0.00 | 81 | 1010.2 |
| 20260505065733 | 60 | 68 | 3.0 | 7.0 | 0.00 | 0.00 | 0.00 | 80 | 1010.2 |
| 20260505065716 | 60 | 68 | 3.0 | 7.0 | 0.00 | 0.00 | 0.00 | 81 | 1010.2 |
| 20260505065535 | 60 | 68 | 3.0 | 7.0 | 0.00 | 0.00 | 0.00 | 80 | 1010.2 |
| 20260505065350 | 60 | 68 | 2.0 | 5.0 | 0.00 | 0.00 | 0.00 | 81 | 1010.3 |
| 20260505065157 | 60 | 90 | 2.0 | 5.0 | 0.00 | 0.00 | 0.00 | 81 | 1010.3 |
| 20260505065016 | 60 | 90 | 2.0 | 3.0 | 0.00 | 0.00 | 0.00 | 81 | 1010.3 |
| 20260505064835 | 60 | 90 | 2.0 | 6.0 | 0.00 | 0.00 | 0.00 | 81 | 1010.3 |
| 20260505064655 | 60 | 68 | 2.0 | 6.0 | 0.00 | 0.00 | 0.00 | 81 | 1010.2 |
| 20260505064505 | 60 | 68 | 2.0 | 6.0 | 0.00 | 0.00 | 0.00 | 81 | 1010.3 |
| 20260505064321 | 60 | 90 | 2.0 | 5.0 | 0.00 | 0.00 | 0.00 | 82 | 1010.3 |
| 20260505064144 | 60 | 90 | 3.0 | 5.0 | 0.00 | 0.00 | 0.00 | 83 | 1010.2 |
| 20260505063953 | 60 | 90 | 3.0 | 5.0 | 0.00 | 0.00 | 0.00 | 82 | 1010.2 |
| 20260505063942 | 60 | 68 | 3.0 | 5.0 | 0.00 | 0.00 | 0.00 | 82 | 1010.3 |
| 20260505063755 | 60 | 68 | 3.0 | 5.0 | 0.00 | 0.00 | 0.00 | 83 | 1010.3 |
| 20260505063600 | 59 | 68 | 3.0 | 7.0 | 0.00 | 0.00 | 0.00 | 84 | 1010.3 |
| 20260505063421 | 59 | 68 | 3.0 | 7.0 | 0.00 | 0.00 | 0.00 | 84 | 1010.3 |
| 20260505063225 | 59 | 68 | 2.0 | 7.0 | 0.00 | 0.00 | 0.00 | 84 | 1010.3 |
| 20260505063027 | 59 | 45 | 2.0 | 4.0 | 0.00 | 0.00 | 0.00 | 84 | 1010.3 |
| 20260505062836 | 59 | 68 | 3.0 | 5.0 | 0.00 | 0.00 | 0.00 | 84 | 1010.4 |
| 20260505062650 | 59 | 68 | 4.0 | 5.0 | 0.00 | 0.00 | 0.00 | 85 | 1010.3 |
| 20260505062505 | 59 | 68 | 4.0 | 7.0 | 0.00 | 0.00 | 0.00 | 84 | 1010.4 |
| 20260505062427 | 59 | 90 | 4.0 | 7.0 | 0.00 | 0.00 | 0.00 | 85 | 1010.4 |
| 20260505062304 | 59 | 68 | 4.0 | 8.0 | 0.00 | 0.00 | 0.00 | 85 | 1010.4 |
| 20260505062120 | 59 | 68 | 4.0 | 8.0 | 0.00 | 0.00 | 0.00 | 85 | 1010.4 |
| 20260505061935 | 59 | 68 | 4.0 | 8.0 | 0.00 | 0.00 | 0.00 | 85 | 1010.4 |
| 20260505061748 | 59 | 68 | 3.0 | 7.0 | 0.00 | 0.00 | 0.00 | 84 | 1010.5 |
| 20260505061605 | 59 | 68 | 2.0 | 5.0 | 0.00 | 0.00 | 0.00 | 85 | 1010.5 |
| 20260505061415 | 59 | 68 | 2.0 | 5.0 | 0.00 | 0.00 | 0.00 | 85 | 1010.5 |
| 20260505061225 | 59 | 68 | 2.0 | 5.0 | 0.00 | 0.00 | 0.00 | 86 | 1010.5 |
| 20260505061033 | 59 | 68 | 2.0 | 5.0 | 0.00 | 0.00 | 0.00 | 85 | 1010.5 |
| 20260505060851 | 59 | 45 | 2.0 | 5.0 | 0.00 | 0.00 | 0.00 | 86 | 1010.6 |
| 20260505060807 | 59 | 45 | 2.0 | 5.0 | 0.00 | 0.00 | 0.00 | 86 | 1010.6 |
| 20260505060705 | 59 | 68 | 2.0 | 5.0 | 0.00 | 0.00 | 0.00 | 86 | 1010.6 |
| 20260505060512 | 59 | 45 | 2.0 | 5.0 | 0.00 | 0.00 | 0.00 | 86 | 1010.6 |
| 20260505060335 | 58 | 45 | 2.0 | 5.0 | 0.00 | 0.00 | 0.00 | 86 | 1010.6 |
| 20260505060155 | 58 | 45 | 2.0 | 4.0 | 0.00 | 0.00 | 0.00 | 86 | 1010.7 |
| 20260505055958 | 58 | 45 | 2.0 | 5.0 | 0.00 | 0.00 | 0.00 | 87 | 1010.6 |
| 20260505055820 | 58 | 45 | 3.0 | 5.0 | 0.00 | 0.00 | 0.00 | 86 | 1010.6 |
| 20260505055630 | 58 | 68 | 3.0 | 5.0 | 0.00 | 0.00 | 0.00 | 87 | 1010.6 |
| 20260505055445 | 58 | 45 | 3.0 | 5.0 | 0.00 | 0.00 | 0.00 | 87 | 1010.6 |
| 20260505055255 | 58 | 68 | 3.0 | 6.0 | 0.00 | 0.00 | 0.00 | 87 | 1010.5 |
| 20260505055115 | 58 | 45 | 3.0 | 7.0 | 0.00 | 0.00 | 0.00 | 87 | 1010.6 |
| 20260505054934 | 58 | 45 | 3.0 | 7.0 | 0.00 | 0.00 | 0.00 | 87 | 1010.6 |
| 20260505054908 | 58 | 68 | 3.0 | 7.0 | 0.00 | 0.00 | 0.00 | 87 | 1010.6 |
| 20260505054740 | 58 | 68 | 3.0 | 8.0 | 0.00 | 0.00 | 0.00 | 88 | 1010.6 |
| 20260505054545 | 58 | 68 | 3.0 | 8.0 | 0.00 | 0.00 | 0.00 | 88 | 1010.7 |
| 20260505054405 | 58 | 45 | 3.0 | 8.0 | 0.00 | 0.00 | 0.00 | 88 | 1010.7 |
| 20260505054220 | 58 | 68 | 2.0 | 5.0 | 0.00 | 0.00 | 0.00 | 88 | 1010.6 |
| 20260505054035 | 58 | 45 | 2.0 | 5.0 | 0.00 | 0.00 | 0.00 | 88 | 1010.7 |
| 20260505053848 | 58 | 45 | 2.0 | 5.0 | 0.00 | 0.00 | 0.00 | 88 | 1010.7 |
| 20260505053656 | 58 | 45 | 2.0 | 5.0 | 0.00 | 0.00 | 0.00 | 88 | 1010.7 |
| 20260505053520 | 58 | 45 | 2.0 | 5.0 | 0.00 | 0.00 | 0.00 | 88 | 1010.7 |
| 20260505053343 | 58 | 45 | 2.0 | 6.0 | 0.00 | 0.00 | 0.00 | 88 | 1010.8 |
| 20260505053319 | 58 | 45 | 2.0 | 6.0 | 0.00 | 0.00 | 0.00 | 88 | 1010.8 |
| 20260505053130 | 58 | 68 | 3.0 | 6.0 | 0.00 | 0.00 | 0.00 | 89 | 1010.7 |
| 20260505052945 | 58 | 68 | 3.0 | 5.0 | 0.00 | 0.00 | 0.00 | 89 | 1010.7 |
| 20260505052800 | 58 | 90 | 2.0 | 7.0 | 0.00 | 0.00 | 0.00 | 89 | 1010.8 |
| 20260505052605 | 58 | 68 | 2.0 | 7.0 | 0.00 | 0.00 | 0.00 | 89 | 1010.7 |
| 20260505052425 | 58 | 45 | 3.0 | 7.0 | 0.00 | 0.00 | 0.00 | 89 | 1010.7 |
| 20260505052230 | 57 | 68 | 2.0 | 5.0 | 0.00 | 0.00 | 0.00 | 90 | 1010.6 |
| 20260505052050 | 57 | 22 | 2.0 | 5.0 | 0.00 | 0.00 | 0.00 | 90 | 1010.7 |
| 20260505051910 | 57 | 68 | 2.0 | 5.0 | 0.00 | 0.00 | 0.00 | 91 | 1010.7 |
| 20260505051727 | 57 | 68 | 2.0 | 5.0 | 0.00 | 0.00 | 0.00 | 91 | 1010.6 |
| 20260505051550 | 57 | 45 | 2.0 | 5.0 | 0.00 | 0.00 | 0.00 | 91 | 1010.7 |
| 20260505051450 | 57 | 68 | 2.0 | 5.0 | 0.00 | 0.00 | 0.00 | 91 | 1010.7 |
| 20260505051400 | 57 | 90 | 2.0 | 5.0 | 0.00 | 0.00 | 0.00 | 91 | 1010.7 |
| 20260505051217 | 57 | 68 | 2.0 | 4.0 | 0.00 | 0.00 | 0.00 | 91 | 1010.7 |
| 20260505051033 | 57 | 68 | 2.0 | 2.0 | 0.00 | 0.00 | 0.00 | 91 | 1010.6 |
| 20260505050847 | 57 | 68 | 2.0 | 5.0 | 0.00 | 0.00 | 0.00 | 91 | 1010.6 |
| 20260505050653 | 57 | 45 | 2.0 | 5.0 | 0.00 | 0.00 | 0.00 | 91 | 1010.6 |
| 20260505050500 | 57 | 22 | 2.0 | 5.0 | 0.00 | 0.00 | 0.00 | 91 | 1010.6 |
| 20260505050300 | 57 | 22 | 2.0 | 5.0 | 0.00 | 0.00 | 0.00 | 91 | 1010.6 |
| 20260505050120 | 57 | 90 | 2.0 | 5.0 | 0.00 | 0.00 | 0.00 | 91 | 1010.6 |
| 20260505041708 | 57 | 45 | 1.0 | 3.0 | 0.00 | 0.00 | 0.00 | 91 | 1010.9 |
| 20260505041519 | 57 | 45 | 0.0 | 3.0 | 0.00 | 0.00 | 0.00 | 91 | 1010.9 |
| 20260505041335 | 57 | 22 | 0.0 | 1.0 | 0.00 | 0.00 | 0.00 | 90 | 1011.0 |
| 20260505041150 | 57 | 22 | 0.0 | 2.0 | 0.00 | 0.00 | 0.00 | 90 | 1011.1 |
| 20260505040947 | 57 | 22 | 0.0 | 2.0 | 0.00 | 0.00 | 0.00 | 90 | 1011.1 |
| 20260505040750 | 57 | 22 | 0.0 | 2.0 | 0.00 | 0.00 | 0.00 | 90 | 1011.1 |
| 20260505040605 | 57 | 22 | 1.0 | 2.0 | 0.00 | 0.00 | 0.00 | 90 | 1011.2 |
| 20260505040425 | 57 | 22 | 1.0 | 2.0 | 0.00 | 0.00 | 0.00 | 90 | 1011.1 |
| 20260505040412 | 57 | 22 | 1.0 | 2.0 | 0.00 | 0.00 | 0.00 | 89 | 1011.2 |
| 20260505040244 | 57 | 22 | 1.0 | 2.0 | 0.00 | 0.00 | 0.00 | 89 | 1011.2 |
| 20260505040050 | 57 | 22 | 1.0 | 2.0 | 0.00 | 0.00 | 0.00 | 89 | 1011.2 |
| 20260505035905 | 57 | 22 | 2.0 | 3.0 | 0.00 | 0.00 | 0.00 | 89 | 1011.3 |
| 20260505035725 | 57 | 292 | 2.0 | 3.0 | 0.00 | 0.00 | 0.00 | 89 | 1011.2 |
| 20260505035539 | 57 | 292 | 2.0 | 3.0 | 0.00 | 0.00 | 0.00 | 89 | 1011.3 |
| 20260505035349 | 57 | 270 | 2.0 | 3.0 | 0.00 | 0.00 | 0.00 | 89 | 1011.2 |
| 20260505035153 | 57 | 270 | 1.0 | 3.0 | 0.00 | 0.00 | 0.00 | 89 | 1011.2 |
| 20260505035010 | 57 | 270 | 1.0 | 3.0 | 0.00 | 0.00 | 0.00 | 89 | 1011.2 |
| 20260505034842 | 57 | 45 | 0.0 | 2.0 | 0.00 | 0.00 | 0.00 | 88 | 1011.1 |
| 20260505034830 | 57 | 45 | 0.0 | 2.0 | 0.00 | 0.00 | 0.00 | 88 | 1011.0 |
| 20260505034645 | 57 | 45 | 0.0 | 1.0 | 0.00 | 0.00 | 0.00 | 88 | 1011.0 |
| 20260505034449 | 57 | 45 | 1.0 | 1.0 | 0.00 | 0.00 | 0.00 | 88 | 1011.0 |
| 20260505034255 | 57 | 45 | 1.0 | 1.0 | 0.00 | 0.00 | 0.00 | 87 | 1010.9 |
| 20260505034110 | 57 | 45 | 2.0 | 3.0 | 0.00 | 0.00 | 0.00 | 87 | 1010.9 |
| 20260505033910 | 57 | 45 | 2.0 | 3.0 | 0.00 | 0.00 | 0.00 | 87 | 1010.8 |
| 20260505033725 | 58 | 45 | 2.0 | 6.0 | 0.00 | 0.00 | 0.00 | 86 | 1010.9 |
| 20260505033537 | 58 | 45 | 2.0 | 6.0 | 0.00 | 0.00 | 0.00 | 86 | 1010.9 |
| 20260505033344 | 58 | 22 | 2.0 | 6.0 | 0.00 | 0.00 | 0.00 | 85 | 1010.9 |
| 20260505033145 | 58 | 45 | 1.0 | 4.0 | 0.00 | 0.00 | 0.00 | 86 | 1010.8 |
| 20260505033102 | 58 | 45 | 1.0 | 3.0 | 0.00 | 0.00 | 0.00 | 85 | 1010.8 |
| 20260505032945 | 58 | 45 | 1.0 | 3.0 | 0.00 | 0.00 | 0.00 | 85 | 1010.8 |
| 20260505032756 | 58 | 45 | 1.0 | 5.0 | 0.00 | 0.00 | 0.00 | 84 | 1010.8 |
| 20260505032601 | 58 | 45 | 2.0 | 5.0 | 0.00 | 0.00 | 0.00 | 84 | 1010.8 |
| 20260505032420 | 58 | 45 | 2.0 | 5.0 | 0.00 | 0.00 | 0.00 | 84 | 1010.9 |
| 20260505032235 | 58 | 90 | 2.0 | 6.0 | 0.00 | 0.00 | 0.00 | 84 | 1011.0 |
| 20260505032049 | 58 | 90 | 3.0 | 6.0 | 0.00 | 0.00 | 0.00 | 84 | 1010.9 |
| 20260505031856 | 58 | 112 | 3.0 | 6.0 | 0.00 | 0.00 | 0.00 | 84 | 1010.9 |
| 20260505031717 | 58 | 45 | 3.0 | 6.0 | 0.00 | 0.00 | 0.00 | 84 | 1010.9 |
| 20260505031535 | 58 | 0 | 3.0 | 6.0 | 0.00 | 0.00 | 0.00 | 84 | 1010.9 |
| 20260505031345 | 58 | 45 | 3.0 | 6.0 | 0.00 | 0.00 | 0.00 | 84 | 1010.9 |
| 20260505031156 | 58 | 0 | 3.0 | 5.0 | 0.00 | 0.00 | 0.00 | 85 | 1011.0 |
| 20260505031010 | 58 | 45 | 3.0 | 6.0 | 0.00 | 0.00 | 0.00 | 85 | 1011.0 |
| 20260505030825 | 58 | 22 | 3.0 | 6.0 | 0.00 | 0.00 | 0.00 | 85 | 1011.0 |
| 20260505030640 | 58 | 338 | 3.0 | 6.0 | 0.00 | 0.00 | 0.00 | 84 | 1011.0 |
| 20260505030459 | 58 | 45 | 3.0 | 5.0 | 0.00 | 0.00 | 0.00 | 84 | 1011.1 |
| 20260505030320 | 58 | 22 | 3.0 | 5.0 | 0.00 | 0.00 | 0.00 | 84 | 1011.1 |
| 20260505030140 | 58 | 22 | 3.0 | 5.0 | 0.00 | 0.00 | 0.00 | 84 | 1011.2 |
| 20260505025959 | 58 | 22 | 3.0 | 5.0 | 0.00 | 0.00 | 0.00 | 84 | 1011.2 |
| 20260505025821 | 58 | 68 | 2.0 | 5.0 | 0.00 | 0.00 | 0.00 | 84 | 1011.2 |
| 20260505025634 | 58 | 68 | 2.0 | 5.0 | 0.00 | 0.00 | 0.00 | 84 | 1011.2 |
| 20260505025455 | 58 | 0 | 2.0 | 5.0 | 0.00 | 0.00 | 0.00 | 84 | 1011.2 |
| 20260505025315 | 58 | 45 | 2.0 | 5.0 | 0.00 | 0.00 | 0.00 | 84 | 1011.3 |
| 20260505025120 | 58 | 45 | 2.0 | 5.0 | 0.00 | 0.00 | 0.00 | 84 | 1011.3 |
| 20260505024925 | 58 | 22 | 1.0 | 5.0 | 0.00 | 0.00 | 0.00 | 84 | 1011.3 |
| 20260505024745 | 58 | 22 | 1.0 | 5.0 | 0.00 | 0.00 | 0.00 | 84 | 1011.3 |
| 20260505024548 | 58 | 22 | 1.0 | 5.0 | 0.00 | 0.00 | 0.00 | 84 | 1011.3 |
| 20260505024400 | 58 | 45 | 1.0 | 5.0 | 0.00 | 0.00 | 0.00 | 84 | 1011.3 |
| 20260505024202 | 58 | 45 | 1.0 | 5.0 | 0.00 | 0.00 | 0.00 | 84 | 1011.3 |
| 20260505024025 | 58 | 45 | 1.0 | 5.0 | 0.00 | 0.00 | 0.00 | 84 | 1011.3 |
| 20260505023825 | 58 | 45 | 1.0 | 5.0 | 0.00 | 0.00 | 0.00 | 84 | 1011.3 |
| 20260505023753 | 58 | 22 | 1.0 | 2.0 | 0.00 | 0.00 | 0.00 | 84 | 1011.3 |
| 20260505023634 | 58 | 22 | 1.0 | 2.0 | 0.00 | 0.00 | 0.00 | 84 | 1011.4 |
| 20260505023455 | 58 | 22 | 1.0 | 2.0 | 0.00 | 0.00 | 0.00 | 84 | 1011.4 |
| 20260505023319 | 58 | 22 | 1.0 | 4.0 | 0.00 | 0.00 | 0.00 | 84 | 1011.5 |
| 20260505023119 | 58 | 22 | 1.0 | 5.0 | 0.00 | 0.00 | 0.00 | 84 | 1011.4 |
| 20260505022925 | 58 | 22 | 1.0 | 5.0 | 0.00 | 0.00 | 0.00 | 84 | 1011.5 |
| 20260505022735 | 58 | 22 | 1.0 | 2.0 | 0.00 | 0.00 | 0.00 | 84 | 1011.4 |
| 20260505022555 | 58 | 45 | 1.0 | 3.0 | 0.00 | 0.00 | 0.00 | 84 | 1011.5 |
| 20260505022200 | 58 | 22 | 1.0 | 3.0 | 0.00 | 0.00 | 0.00 | 84 | 1011.6 |
| 20260505022000 | 58 | 315 | 0.0 | 2.0 | 0.00 | 0.00 | 0.00 | 84 | 1011.5 |
| 20260505021947 | 58 | 315 | 1.0 | 2.0 | 0.00 | 0.00 | 0.00 | 84 | 1011.5 |
| 20260505021822 | 58 | 45 | 1.0 | 2.0 | 0.00 | 0.00 | 0.00 | 84 | 1011.5 |
| 20260505021627 | 58 | 45 | 1.0 | 2.0 | 0.00 | 0.00 | 0.00 | 84 | 1011.5 |
| 20260505021437 | 58 | 45 | 1.0 | 2.0 | 0.00 | 0.00 | 0.00 | 83 | 1011.5 |
| 20260505021245 | 58 | 45 | 1.0 | 3.0 | 0.00 | 0.00 | 0.00 | 83 | 1011.6 |
| 20260505021046 | 58 | 45 | 1.0 | 3.0 | 0.00 | 0.00 | 0.00 | 83 | 1011.6 |
| 20260505020855 | 58 | 45 | 1.0 | 3.0 | 0.00 | 0.00 | 0.00 | 83 | 1011.6 |
| 20260505020703 | 58 | 45 | 2.0 | 5.0 | 0.00 | 0.00 | 0.00 | 83 | 1011.7 |
| 20260505020515 | 58 | 45 | 2.0 | 5.0 | 0.00 | 0.00 | 0.00 | 83 | 1011.6 |
| 20260505020325 | 58 | 45 | 2.0 | 5.0 | 0.00 | 0.00 | 0.00 | 83 | 1011.6 |
| 20260505020136 | 58 | 22 | 2.0 | 5.0 | 0.00 | 0.00 | 0.00 | 83 | 1011.6 |
| 20260505015940 | 58 | 22 | 2.0 | 7.0 | 0.00 | 0.00 | 0.00 | 83 | 1011.6 |
| 20260505015745 | 58 | 45 | 2.0 | 7.0 | 0.00 | 0.00 | 0.00 | 83 | 1011.6 |
| 20260505015545 | 58 | 68 | 2.0 | 7.0 | 0.00 | 0.00 | 0.00 | 83 | 1011.6 |
| 20260505015356 | 58 | 68 | 2.0 | 2.0 | 0.00 | 0.00 | 0.00 | 83 | 1011.6 |
| 20260505015210 | 58 | 292 | 2.0 | 2.0 | 0.00 | 0.00 | 0.00 | 83 | 1011.6 |
| 20260505015021 | 58 | 292 | 2.0 | 5.0 | 0.00 | 0.00 | 0.00 | 83 | 1011.6 |
| 20260505014825 | 58 | 292 | 3.0 | 5.0 | 0.00 | 0.00 | 0.00 | 83 | 1011.7 |
| 20260505014625 | 58 | 292 | 3.0 | 5.0 | 0.00 | 0.00 | 0.00 | 83 | 1011.7 |
| 20260505014434 | 58 | 22 | 3.0 | 5.0 | 0.00 | 0.00 | 0.00 | 83 | 1011.6 |
| 20260505014404 | 59 | 22 | 3.0 | 5.0 | 0.00 | 0.00 | 0.00 | 83 | 1011.7 |
| 20260505014255 | 59 | 45 | 3.0 | 5.0 | 0.00 | 0.00 | 0.00 | 83 | 1011.6 |
| 20260505014110 | 59 | 45 | 3.0 | 5.0 | 0.00 | 0.00 | 0.00 | 83 | 1011.7 |
| 20260505013915 | 59 | 22 | 3.0 | 5.0 | 0.00 | 0.00 | 0.00 | 83 | 1011.8 |
| 20260505013720 | 59 | 292 | 3.0 | 5.0 | 0.00 | 0.00 | 0.00 | 83 | 1011.8 |
| 20260505013530 | 59 | 292 | 3.0 | 5.0 | 0.00 | 0.00 | 0.00 | 83 | 1011.9 |
| 20260505013350 | 59 | 315 | 2.0 | 5.0 | 0.00 | 0.00 | 0.00 | 83 | 1011.8 |
| 20260505013154 | 59 | 292 | 2.0 | 5.0 | 0.00 | 0.00 | 0.00 | 82 | 1011.8 |
| 20260505013000 | 59 | 292 | 2.0 | 5.0 | 0.00 | 0.00 | 0.00 | 82 | 1011.8 |
| 20260505012825 | 59 | 315 | 2.0 | 2.0 | 0.00 | 0.00 | 0.00 | 82 | 1011.7 |
| 20260505012644 | 59 | 338 | 3.0 | 5.0 | 0.00 | 0.00 | 0.00 | 82 | 1011.7 |
| 20260505012555 | 59 | 338 | 3.0 | 5.0 | 0.00 | 0.00 | 0.00 | 82 | 1011.7 |
| 20260505012507 | 59 | 292 | 4.0 | 5.0 | 0.00 | 0.00 | 0.00 | 82 | 1011.8 |
| 20260505012321 | 59 | 292 | 4.0 | 5.0 | 0.00 | 0.00 | 0.00 | 82 | 1011.9 |
| 20260505012130 | 59 | 270 | 3.0 | 6.0 | 0.00 | 0.00 | 0.00 | 82 | 1011.8 |
| 20260505011931 | 59 | 202 | 3.0 | 6.0 | 0.00 | 0.00 | 0.00 | 81 | 1011.9 |
| 20260505011742 | 59 | 292 | 2.0 | 6.0 | 0.00 | 0.00 | 0.00 | 81 | 1011.8 |
| 20260505011545 | 59 | 270 | 2.0 | 5.0 | 0.00 | 0.00 | 0.00 | 81 | 1011.7 |
| 20260505011405 | 59 | 248 | 1.0 | 4.0 | 0.00 | 0.00 | 0.00 | 82 | 1011.7 |
| 20260505011217 | 59 | 68 | 1.0 | 2.0 | 0.00 | 0.00 | 0.00 | 81 | 1011.6 |
| 20260505011023 | 59 | 68 | 2.0 | 5.0 | 0.00 | 0.00 | 0.00 | 81 | 1011.5 |
| 20260505010830 | 59 | 68 | 2.0 | 5.0 | 0.00 | 0.00 | 0.00 | 81 | 1011.5 |
| 20260505010645 | 59 | 68 | 2.0 | 5.0 | 0.00 | 0.00 | 0.00 | 81 | 1011.5 |
| 20260505010500 | 59 | 112 | 2.0 | 5.0 | 0.00 | 0.00 | 0.00 | 81 | 1011.5 |
| 20260505010310 | 59 | 45 | 2.0 | 4.0 | 0.00 | 0.00 | 0.00 | 81 | 1011.5 |
| 20260505010120 | 59 | 68 | 2.0 | 4.0 | 0.00 | 0.00 | 0.00 | 81 | 1011.5 |
| 20260505005925 | 59 | 68 | 3.0 | 6.0 | 0.00 | 0.00 | 0.00 | 81 | 1011.5 |
| 20260505005735 | 59 | 68 | 3.0 | 6.0 | 0.00 | 0.00 | 0.00 | 81 | 1011.5 |
| 20260505005556 | 59 | 68 | 3.0 | 6.0 | 0.00 | 0.00 | 0.00 | 81 | 1011.5 |
| 20260505005512 | 59 | 68 | 3.0 | 6.0 | 0.00 | 0.00 | 0.00 | 81 | 1011.5 |
| 20260505005420 | 59 | 68 | 3.0 | 6.0 | 0.00 | 0.00 | 0.00 | 81 | 1011.5 |
| 20260505005220 | 59 | 68 | 3.0 | 6.0 | 0.00 | 0.00 | 0.00 | 81 | 1011.7 |
| 20260505005038 | 59 | 68 | 3.0 | 6.0 | 0.00 | 0.00 | 0.00 | 81 | 1011.6 |
| 20260505004845 | 59 | 68 | 3.0 | 6.0 | 0.00 | 0.00 | 0.00 | 81 | 1011.6 |
| 20260505004651 | 59 | 68 | 3.0 | 6.0 | 0.00 | 0.00 | 0.00 | 81 | 1011.6 |
| 20260505004454 | 59 | 68 | 3.0 | 6.0 | 0.00 | 0.00 | 0.00 | 81 | 1011.6 |
| 20260505004320 | 59 | 90 | 2.0 | 6.0 | 0.00 | 0.00 | 0.00 | 81 | 1011.6 |
| 20260505004139 | 59 | 68 | 2.0 | 5.0 | 0.00 | 0.00 | 0.00 | 81 | 1011.5 |
| 20260505003940 | 59 | 68 | 2.0 | 5.0 | 0.00 | 0.00 | 0.00 | 81 | 1011.6 |
| 20260505003921 | 59 | 45 | 2.0 | 4.0 | 0.00 | 0.00 | 0.00 | 81 | 1011.6 |
| 20260505003740 | 59 | 45 | 2.0 | 4.0 | 0.00 | 0.00 | 0.00 | 81 | 1011.7 |
| 20260505003600 | 59 | 68 | 2.0 | 4.0 | 0.00 | 0.00 | 0.00 | 81 | 1011.7 |
| 20260505003410 | 59 | 45 | 2.0 | 5.0 | 0.00 | 0.00 | 0.00 | 81 | 1011.7 |
| 20260505003230 | 59 | 45 | 2.0 | 5.0 | 0.00 | 0.00 | 0.00 | 81 | 1011.7 |
| 20260505003028 | 59 | 45 | 2.0 | 5.0 | 0.00 | 0.00 | 0.00 | 81 | 1011.8 |
| 20260505002840 | 59 | 68 | 2.0 | 5.0 | 0.00 | 0.00 | 0.00 | 81 | 1011.8 |
| 20260505002651 | 59 | 68 | 2.0 | 5.0 | 0.00 | 0.00 | 0.00 | 81 | 1011.8 |
| 20260505002511 | 59 | 68 | 3.0 | 5.0 | 0.00 | 0.00 | 0.00 | 81 | 1011.9 |
| 20260505002335 | 59 | 90 | 3.0 | 5.0 | 0.00 | 0.00 | 0.00 | 81 | 1012.0 |
| 20260505002311 | 59 | 68 | 3.0 | 5.0 | 0.00 | 0.00 | 0.00 | 81 | 1011.9 |
| 20260505002139 | 59 | 68 | 3.0 | 5.0 | 0.00 | 0.00 | 0.00 | 81 | 1012.0 |
| 20260505002000 | 59 | 68 | 3.0 | 5.0 | 0.00 | 0.00 | 0.00 | 81 | 1011.9 |
| 20260505001820 | 59 | 90 | 3.0 | 5.0 | 0.00 | 0.00 | 0.00 | 81 | 1011.9 |
| 20260505001625 | 59 | 68 | 3.0 | 5.0 | 0.00 | 0.00 | 0.00 | 81 | 1011.9 |
| 20260505001435 | 59 | 68 | 3.0 | 5.0 | 0.00 | 0.00 | 0.00 | 81 | 1011.9 |
| 20260505001235 | 59 | 68 | 2.0 | 5.0 | 0.00 | 0.00 | 0.00 | 81 | 1011.9 |
| 20260505001035 | 59 | 68 | 2.0 | 4.0 | 0.00 | 0.00 | 0.00 | 81 | 1011.9 |
| 20260505000844 | 59 | 68 | 2.0 | 4.0 | 0.00 | 0.00 | 0.00 | 81 | 1012.0 |
| 20260505000655 | 59 | 68 | 2.0 | 4.0 | 0.00 | 0.00 | 0.00 | 81 | 1012.0 |
| 20260505000507 | 59 | 90 | 2.0 | 4.0 | 0.00 | 0.00 | 0.00 | 81 | 1012.0 |
| 20260505000452 | 59 | 90 | 2.0 | 4.0 | 0.00 | 0.00 | 0.00 | 81 | 1012.1 |
| 20260505000329 | 59 | 90 | 2.0 | 4.0 | 0.00 | 0.00 | 0.00 | 81 | 1012.0 |
| 20260505000145 | 59 | 90 | 2.0 | 4.0 | 0.00 | 0.00 | 0.00 | 81 | 1012.0 |
| 20260505000000 | 59 | 90 | 3.0 | 4.0 | 0.00 | 0.00 | 0.00 | 81 | 1012.1 |
| 20260504235812 | 59 | 90 | 3.0 | 5.0 | 0.00 | 0.00 | 0.00 | 81 | 1012.0 |
| 20260504235630 | 59 | 68 | 3.0 | 7.0 | 0.00 | 0.00 | 0.00 | 81 | 1012.1 |
| 20260504235435 | 59 | 68 | 3.0 | 7.0 | 0.00 | 0.00 | 0.00 | 81 | 1012.1 |
| 20260504235257 | 59 | 68 | 3.0 | 7.0 | 0.00 | 0.00 | 0.00 | 81 | 1012.1 |
| 20260504235105 | 59 | 68 | 2.0 | 5.0 | 0.00 | 0.00 | 0.00 | 81 | 1012.1 |
| 20260504234905 | 59 | 68 | 2.0 | 5.0 | 0.00 | 0.00 | 0.00 | 81 | 1012.1 |
| 20260504234747 | 59 | 90 | 2.0 | 5.0 | 0.00 | 0.00 | 0.00 | 81 | 1012.1 |
| 20260504234725 | 59 | 68 | 2.0 | 5.0 | 0.00 | 0.00 | 0.00 | 81 | 1012.1 |
| 20260504234542 | 59 | 68 | 2.0 | 5.0 | 0.00 | 0.00 | 0.00 | 81 | 1012.1 |
| 20260504234400 | 59 | 68 | 2.0 | 5.0 | 0.00 | 0.00 | 0.00 | 81 | 1012.1 |
| 20260504234215 | 59 | 68 | 2.0 | 5.0 | 0.00 | 0.00 | 0.00 | 81 | 1012.1 |
| 20260504234034 | 59 | 90 | 2.0 | 5.0 | 0.00 | 0.00 | 0.00 | 82 | 1012.0 |
| 20260504233844 | 59 | 90 | 2.0 | 5.0 | 0.00 | 0.00 | 0.00 | 81 | 1012.1 |
| 20260504233705 | 59 | 90 | 2.0 | 5.0 | 0.00 | 0.00 | 0.00 | 81 | 1012.0 |
| 20260504233505 | 59 | 90 | 2.0 | 5.0 | 0.00 | 0.00 | 0.00 | 81 | 1012.1 |
| 20260504233311 | 59 | 90 | 3.0 | 5.0 | 0.00 | 0.00 | 0.00 | 81 | 1012.0 |
| 20260504233115 | 59 | 90 | 3.0 | 5.0 | 0.00 | 0.00 | 0.00 | 81 | 1012.1 |
| 20260504232925 | 59 | 90 | 3.0 | 5.0 | 0.00 | 0.00 | 0.00 | 81 | 1012.1 |
| 20260504232740 | 59 | 90 | 3.0 | 5.0 | 0.00 | 0.00 | 0.00 | 81 | 1012.1 |
| 20260504232600 | 59 | 90 | 3.0 | 5.0 | 0.00 | 0.00 | 0.00 | 81 | 1012.1 |
| 20260504232405 | 59 | 90 | 3.0 | 5.0 | 0.00 | 0.00 | 0.00 | 80 | 1012.2 |
| 20260504232217 | 59 | 68 | 2.0 | 5.0 | 0.00 | 0.00 | 0.00 | 80 | 1012.1 |
| 20260504232018 | 59 | 68 | 2.0 | 5.0 | 0.00 | 0.00 | 0.00 | 80 | 1012.2 |
| 20260504231840 | 59 | 68 | 2.0 | 5.0 | 0.00 | 0.00 | 0.00 | 80 | 1012.2 |
| 20260504231640 | 59 | 68 | 2.0 | 3.0 | 0.00 | 0.00 | 0.00 | 81 | 1012.3 |
| 20260504231505 | 60 | 68 | 2.0 | 4.0 | 0.00 | 0.00 | 0.00 | 81 | 1012.3 |
| 20260504231407 | 60 | 68 | 2.0 | 4.0 | 0.00 | 0.00 | 0.00 | 81 | 1012.2 |
| 20260504231306 | 60 | 68 | 2.0 | 4.0 | 0.00 | 0.00 | 0.00 | 80 | 1012.4 |
| 20260504231129 | 60 | 68 | 2.0 | 5.0 | 0.00 | 0.00 | 0.00 | 80 | 1012.3 |
| 20260504230945 | 60 | 68 | 2.0 | 5.0 | 0.00 | 0.00 | 0.00 | 80 | 1012.3 |
| 20260504230755 | 60 | 68 | 2.0 | 5.0 | 0.00 | 0.00 | 0.00 | 80 | 1012.3 |
| 20260504230605 | 60 | 68 | 2.0 | 5.0 | 0.00 | 0.00 | 0.00 | 81 | 1012.3 |
| 20260504230403 | 60 | 68 | 2.0 | 5.0 | 0.00 | 0.00 | 0.00 | 80 | 1012.4 |
| 20260504230210 | 60 | 90 | 2.0 | 3.0 | 0.00 | 0.00 | 0.00 | 81 | 1012.3 |
| 20260504230025 | 60 | 90 | 2.0 | 3.0 | 0.00 | 0.00 | 0.00 | 81 | 1012.4 |
| 20260504225830 | 60 | 90 | 2.0 | 4.0 | 0.00 | 0.00 | 0.00 | 80 | 1012.4 |
| 20260504225640 | 60 | 90 | 2.0 | 4.0 | 0.00 | 0.00 | 0.00 | 80 | 1012.3 |
| 20260504225527 | 60 | 90 | 2.0 | 4.0 | 0.00 | 0.00 | 0.00 | 80 | 1012.5 |
| 20260504225500 | 60 | 90 | 2.0 | 4.0 | 0.00 | 0.00 | 0.00 | 80 | 1012.5 |
| 20260504225310 | 60 | 90 | 1.0 | 2.0 | 0.00 | 0.00 | 0.00 | 80 | 1012.4 |
| 20260504225124 | 60 | 90 | 1.0 | 2.0 | 0.00 | 0.00 | 0.00 | 80 | 1012.5 |
| 20260504224945 | 60 | 90 | 1.0 | 2.0 | 0.00 | 0.00 | 0.00 | 80 | 1012.6 |
| 20260504224745 | 60 | 90 | 1.0 | 2.0 | 0.00 | 0.00 | 0.00 | 80 | 1012.4 |
| 20260504224549 | 60 | 90 | 1.0 | 2.0 | 0.00 | 0.00 | 0.00 | 80 | 1012.4 |
| 20260504224400 | 60 | 90 | 2.0 | 5.0 | 0.00 | 0.00 | 0.00 | 80 | 1012.4 |
| 20260504224205 | 60 | 90 | 2.0 | 5.0 | 0.00 | 0.00 | 0.00 | 80 | 1012.4 |
| 20260504224020 | 60 | 90 | 2.0 | 5.0 | 0.00 | 0.00 | 0.00 | 80 | 1012.5 |
| 20260504223830 | 60 | 45 | 2.0 | 4.0 | 0.00 | 0.00 | 0.00 | 80 | 1012.5 |
| 20260504223630 | 59 | 45 | 2.0 | 5.0 | 0.00 | 0.00 | 0.00 | 80 | 1012.5 |
| 20260504223450 | 59 | 45 | 2.0 | 5.0 | 0.00 | 0.00 | 0.00 | 80 | 1012.5 |
| 20260504223308 | 59 | 68 | 2.0 | 5.0 | 0.00 | 0.00 | 0.00 | 80 | 1012.5 |
| 20260504223120 | 59 | 68 | 2.0 | 5.0 | 0.00 | 0.00 | 0.00 | 81 | 1012.5 |
| 20260504222929 | 59 | 45 | 1.0 | 3.0 | 0.00 | 0.00 | 0.00 | 81 | 1012.4 |
| 20260504222740 | 59 | 45 | 1.0 | 3.0 | 0.00 | 0.00 | 0.00 | 81 | 1012.4 |
| 20260504222600 | 59 | 45 | 1.0 | 5.0 | 0.00 | 0.00 | 0.00 | 81 | 1012.4 |
| 20260504222418 | 59 | 45 | 1.0 | 5.0 | 0.00 | 0.00 | 0.00 | 81 | 1012.5 |
| 20260504222230 | 59 | 45 | 1.0 | 5.0 | 0.00 | 0.00 | 0.00 | 81 | 1012.5 |
| 20260504222050 | 59 | 45 | 1.0 | 2.0 | 0.00 | 0.00 | 0.00 | 81 | 1012.5 |
| 20260504222012 | 59 | 45 | 1.0 | 2.0 | 0.00 | 0.00 | 0.00 | 81 | 1012.5 |
| 20260504221910 | 59 | 45 | 0.0 | 2.0 | 0.00 | 0.00 | 0.00 | 81 | 1012.5 |
| 20260504221718 | 59 | 45 | 0.0 | 3.0 | 0.00 | 0.00 | 0.00 | 81 | 1012.5 |
| 20260504221542 | 59 | 45 | 1.0 | 3.0 | 0.00 | 0.00 | 0.00 | 81 | 1012.6 |
| 20260504221400 | 59 | 45 | 0.0 | 3.0 | 0.00 | 0.00 | 0.00 | 80 | 1012.6 |
| 20260504221200 | 59 | 45 | 0.0 | 2.0 | 0.00 | 0.00 | 0.00 | 80 | 1012.5 |
| 20260504221020 | 60 | 45 | 0.0 | 2.0 | 0.00 | 0.00 | 0.00 | 80 | 1012.6 |
| 20260504220831 | 60 | 45 | 0.0 | 3.0 | 0.00 | 0.00 | 0.00 | 80 | 1012.5 |
| 20260504220655 | 60 | 45 | 1.0 | 3.0 | 0.00 | 0.00 | 0.00 | 80 | 1012.6 |
| 20260504220510 | 60 | 45 | 1.0 | 3.0 | 0.00 | 0.00 | 0.00 | 79 | 1012.6 |
| 20260504220330 | 60 | 45 | 1.0 | 2.0 | 0.00 | 0.00 | 0.00 | 79 | 1012.6 |
| 20260504220130 | 60 | 45 | 1.0 | 5.0 | 0.00 | 0.00 | 0.00 | 79 | 1012.6 |
| 20260504215947 | 60 | 45 | 1.0 | 5.0 | 0.00 | 0.00 | 0.00 | 79 | 1012.6 |
| 20260504215750 | 60 | 45 | 1.0 | 5.0 | 0.00 | 0.00 | 0.00 | 79 | 1012.6 |
| 20260504215552 | 60 | 45 | 1.0 | 4.0 | 0.00 | 0.00 | 0.00 | 79 | 1012.6 |
| 20260504215415 | 60 | 45 | 1.0 | 4.0 | 0.00 | 0.00 | 0.00 | 78 | 1012.6 |
| 20260504215225 | 60 | 45 | 1.0 | 4.0 | 0.00 | 0.00 | 0.00 | 78 | 1012.6 |
| 20260504215028 | 60 | 45 | 0.0 | 2.0 | 0.00 | 0.00 | 0.00 | 78 | 1012.6 |
| 20260504214838 | 60 | 45 | 0.0 | 2.0 | 0.00 | 0.00 | 0.00 | 78 | 1012.6 |
| 20260504214645 | 60 | 22 | 0.0 | 1.0 | 0.00 | 0.00 | 0.00 | 78 | 1012.6 |
| 20260504214500 | 60 | 22 | 1.0 | 1.0 | 0.00 | 0.00 | 0.00 | 77 | 1012.7 |
| 20260504214428 | 60 | 22 | 1.0 | 2.0 | 0.00 | 0.00 | 0.00 | 77 | 1012.6 |
| 20260504214310 | 61 | 22 | 1.0 | 2.0 | 0.00 | 0.00 | 0.00 | 77 | 1012.7 |
| 20260504214120 | 61 | 22 | 1.0 | 2.0 | 0.00 | 0.00 | 0.00 | 76 | 1012.6 |
| 20260504213945 | 61 | 22 | 1.0 | 2.0 | 0.00 | 0.00 | 0.00 | 76 | 1012.7 |
| 20260504213744 | 61 | 22 | 1.0 | 2.0 | 0.00 | 0.00 | 0.00 | 76 | 1012.7 |
| 20260504213545 | 61 | 22 | 1.0 | 2.0 | 0.00 | 0.00 | 0.00 | 76 | 1012.7 |
| 20260504213348 | 61 | 22 | 2.0 | 2.0 | 0.00 | 0.00 | 0.00 | 75 | 1012.7 |
| 20260504213150 | 61 | 22 | 2.0 | 2.0 | 0.00 | 0.00 | 0.00 | 75 | 1012.7 |
| 20260504212959 | 61 | 22 | 2.0 | 5.0 | 0.00 | 0.00 | 0.00 | 75 | 1012.7 |
| 20260504212756 | 61 | 0 | 2.0 | 5.0 | 0.00 | 0.00 | 0.00 | 74 | 1012.8 |
| 20260504212612 | 61 | 45 | 2.0 | 5.0 | 0.00 | 0.00 | 0.00 | 74 | 1012.8 |
| 20260504212415 | 62 | 45 | 2.0 | 4.0 | 0.00 | 0.00 | 0.00 | 74 | 1012.8 |
| 20260504212225 | 62 | 68 | 2.0 | 4.0 | 0.00 | 0.00 | 0.00 | 74 | 1012.6 |
| 20260504212028 | 62 | 68 | 2.0 | 5.0 | 0.00 | 0.00 | 0.00 | 74 | 1012.7 |
| 20260504211830 | 62 | 45 | 1.0 | 5.0 | 0.00 | 0.00 | 0.00 | 74 | 1012.8 |
| 20260504211630 | 62 | 45 | 1.0 | 5.0 | 0.00 | 0.00 | 0.00 | 74 | 1012.8 |
| 20260504211441 | 62 | 45 | 1.0 | 2.0 | 0.00 | 0.00 | 0.00 | 74 | 1012.8 |
| 20260504211255 | 62 | 45 | 1.0 | 2.0 | 0.00 | 0.00 | 0.00 | 73 | 1012.8 |
| 20260504211221 | 62 | 45 | 1.0 | 2.0 | 0.00 | 0.00 | 0.00 | 73 | 1012.8 |
| 20260504211103 | 62 | 45 | 1.0 | 2.0 | 0.00 | 0.00 | 0.00 | 73 | 1012.9 |
| 20260504210908 | 62 | 45 | 1.0 | 4.0 | 0.00 | 0.00 | 0.00 | 73 | 1012.7 |
| 20260504210720 | 62 | 45 | 1.0 | 4.0 | 0.00 | 0.00 | 0.00 | 73 | 1012.8 |
| 20260504210540 | 62 | 45 | 1.0 | 4.0 | 0.00 | 0.00 | 0.00 | 72 | 1012.9 |
| 20260504210350 | 62 | 45 | 1.0 | 4.0 | 0.00 | 0.00 | 0.00 | 72 | 1012.8 |
| 20260504210215 | 62 | 45 | 1.0 | 3.0 | 0.00 | 0.00 | 0.00 | 72 | 1012.8 |
| 20260504210025 | 62 | 45 | 1.0 | 2.0 | 0.00 | 0.00 | 0.00 | 72 | 1012.9 |
| 20260504205845 | 62 | 45 | 2.0 | 2.0 | 0.00 | 0.00 | 0.00 | 72 | 1012.8 |
| 20260504205655 | 62 | 45 | 2.0 | 3.0 | 0.00 | 0.00 | 0.00 | 71 | 1012.8 |
| 20260504205500 | 62 | 45 | 2.0 | 5.0 | 0.00 | 0.00 | 0.00 | 71 | 1012.7 |
| 20260504205331 | 62 | 45 | 2.0 | 5.0 | 0.00 | 0.00 | 0.00 | 71 | 1012.7 |
| 20260504205305 | 62 | 45 | 2.0 | 5.0 | 0.00 | 0.00 | 0.00 | 71 | 1012.8 |
| 20260504205120 | 62 | 68 | 2.0 | 5.0 | 0.00 | 0.00 | 0.00 | 71 | 1012.8 |
| 20260504204937 | 62 | 22 | 1.0 | 5.0 | 0.00 | 0.00 | 0.00 | 71 | 1012.6 |
| 20260504204750 | 62 | 45 | 1.0 | 2.0 | 0.00 | 0.00 | 0.00 | 71 | 1012.7 |
| 20260504204555 | 63 | 45 | 2.0 | 3.0 | 0.00 | 0.00 | 0.00 | 71 | 1012.7 |
| 20260504204400 | 63 | 45 | 2.0 | 3.0 | 0.00 | 0.00 | 0.00 | 71 | 1012.8 |
| 20260504204220 | 63 | 22 | 2.0 | 3.0 | 0.00 | 0.00 | 0.00 | 71 | 1012.7 |
| 20260504204037 | 63 | 22 | 2.0 | 3.0 | 0.00 | 0.00 | 0.00 | 70 | 1012.7 |
| 20260504203840 | 63 | 22 | 2.0 | 4.0 | 0.00 | 0.00 | 0.00 | 70 | 1012.8 |
| 20260504203651 | 63 | 22 | 2.0 | 4.0 | 0.00 | 0.00 | 0.00 | 70 | 1012.7 |
| 20260504203606 | 63 | 22 | 2.0 | 4.0 | 0.00 | 0.00 | 0.00 | 70 | 1012.8 |
| 20260504203515 | 63 | 45 | 2.0 | 4.0 | 0.00 | 0.00 | 0.00 | 71 | 1012.8 |
| 20260504203330 | 63 | 45 | 1.0 | 3.0 | 0.00 | 0.00 | 0.00 | 70 | 1012.8 |
| 20260504203140 | 63 | 45 | 1.0 | 3.0 | 0.00 | 0.00 | 0.00 | 71 | 1012.8 |
| 20260504202945 | 63 | 45 | 1.0 | 3.0 | 0.00 | 0.00 | 0.00 | 70 | 1012.8 |
| 20260504202805 | 63 | 45 | 1.0 | 3.0 | 0.00 | 0.00 | 0.00 | 71 | 1012.8 |
| 20260504202604 | 63 | 22 | 0.0 | 2.0 | 0.00 | 0.00 | 0.00 | 70 | 1012.8 |
| 20260504202413 | 63 | 22 | 1.0 | 2.0 | 0.00 | 0.00 | 0.00 | 70 | 1012.8 |
| 20260504202230 | 63 | 22 | 1.0 | 2.0 | 0.00 | 0.00 | 0.00 | 70 | 1012.7 |
| 20260504202048 | 63 | 22 | 1.0 | 3.0 | 0.00 | 0.00 | 0.00 | 70 | 1012.8 |
| 20260504202012 | 63 | 22 | 1.0 | 3.0 | 0.00 | 0.00 | 0.00 | 70 | 1012.8 |
| 20260504201910 | 63 | 22 | 1.0 | 3.0 | 0.00 | 0.00 | 0.00 | 70 | 1012.7 |
| 20260504201730 | 63 | 22 | 1.0 | 3.0 | 0.00 | 0.00 | 0.00 | 70 | 1012.8 |
| 20260504201535 | 63 | 22 | 1.0 | 2.0 | 0.00 | 0.00 | 0.00 | 70 | 1012.7 |
| 20260504201341 | 63 | 22 | 1.0 | 2.0 | 0.00 | 0.00 | 0.00 | 70 | 1012.7 |
| 20260504201203 | 63 | 22 | 1.0 | 2.0 | 0.00 | 0.00 | 0.00 | 70 | 1012.7 |
| 20260504201015 | 63 | 45 | 1.0 | 2.0 | 0.00 | 0.00 | 0.00 | 70 | 1012.6 |
| 20260504200819 | 63 | 45 | 1.0 | 2.0 | 0.00 | 0.00 | 0.00 | 70 | 1012.7 |
| 20260504200618 | 63 | 45 | 1.0 | 3.0 | 0.00 | 0.00 | 0.00 | 70 | 1012.7 |
| 20260504200422 | 63 | 45 | 1.0 | 3.0 | 0.00 | 0.00 | 0.00 | 70 | 1012.7 |
| 20260504200240 | 63 | 45 | 1.0 | 3.0 | 0.00 | 0.00 | 0.00 | 70 | 1012.7 |
| 20260504200150 | 63 | 45 | 1.0 | 3.0 | 0.00 | 0.00 | 0.00 | 69 | 1012.6 |
| 20260504200045 | 63 | 45 | 1.0 | 3.0 | 0.00 | 0.00 | 0.00 | 69 | 1012.7 |
| 20260504195900 | 63 | 45 | 1.0 | 2.0 | 0.00 | 0.00 | 0.00 | 70 | 1012.7 |
| 20260504195705 | 63 | 45 | 1.0 | 2.0 | 0.00 | 0.00 | 0.00 | 70 | 1012.6 |
| 20260504195522 | 63 | 0 | 1.0 | 5.0 | 0.00 | 0.00 | 0.00 | 71 | 1012.7 |
| 20260504195345 | 63 | 0 | 0.0 | 5.0 | 0.00 | 0.00 | 0.00 | 71 | 1012.7 |
| 20260504195150 | 63 | 0 | 0.0 | 5.0 | 0.00 | 0.00 | 0.00 | 71 | 1012.6 |
| 20260504194950 | 63 | 0 | 0.0 | 0.0 | 0.00 | 0.00 | 0.00 | 72 | 1012.7 |
| 20260504194800 | 63 | 0 | 0.0 | 1.0 | 0.00 | 0.00 | 0.00 | 72 | 1012.6 |
| 20260504194618 | 63 | 0 | 0.0 | 0.0 | 0.00 | 0.00 | 0.00 | 72 | 1012.6 |
| 20260504194423 | 63 | 0 | 0.0 | 0.0 | 0.00 | 0.00 | 0.00 | 72 | 1012.6 |
| 20260504194342 | 63 | 0 | 0.0 | 0.0 | 0.00 | 0.00 | 0.00 | 72 | 1012.6 |
| 20260504194230 | 63 | 0 | 0.0 | 0.0 | 0.00 | 0.00 | 0.00 | 72 | 1012.6 |
| 20260504194041 | 63 | 0 | 0.0 | 0.0 | 0.00 | 0.00 | 0.00 | 72 | 1012.6 |
| 20260504193855 | 63 | 0 | 0.0 | 0.0 | 0.00 | 0.00 | 0.00 | 73 | 1012.6 |
| 20260504193705 | 63 | 0 | 0.0 | 0.0 | 0.00 | 0.00 | 0.00 | 72 | 1012.5 |
| 20260504193505 | 63 | 0 | 0.0 | 0.0 | 0.00 | 0.00 | 0.00 | 71 | 1012.6 |
| 20260504193310 | 64 | 0 | 0.0 | 0.0 | 0.00 | 0.00 | 0.00 | 71 | 1012.6 |
| 20260504193115 | 64 | 0 | 0.0 | 0.0 | 0.00 | 0.00 | 0.00 | 71 | 1012.6 |
| 20260504192918 | 64 | 0 | 0.0 | 0.0 | 0.00 | 0.00 | 0.00 | 71 | 1012.6 |
| 20260504192742 | 64 | 0 | 0.0 | 0.0 | 0.00 | 0.00 | 0.00 | 70 | 1012.6 |
| 20260504192536 | 64 | 0 | 0.0 | 0.0 | 0.00 | 0.00 | 0.00 | 69 | 1012.5 |
| 20260504192348 | 64 | 0 | 0.0 | 0.0 | 0.00 | 0.00 | 0.00 | 69 | 1012.6 |
| 20260504192211 | 64 | 0 | 0.0 | 0.0 | 0.00 | 0.00 | 0.00 | 69 | 1012.5 |
| 20260504192017 | 64 | 0 | 0.0 | 0.0 | 0.00 | 0.00 | 0.00 | 69 | 1012.4 |
| 20260504191840 | 65 | 0 | 0.0 | 0.0 | 0.00 | 0.00 | 0.00 | 69 | 1012.4 |
| 20260504191700 | 65 | 0 | 0.0 | 0.0 | 0.00 | 0.00 | 0.00 | 68 | 1012.5 |
| 20260504191515 | 65 | 0 | 0.0 | 0.0 | 0.00 | 0.00 | 0.00 | 68 | 1012.5 |
| 20260504191337 | 65 | 0 | 0.0 | 0.0 | 0.00 | 0.00 | 0.00 | 68 | 1012.5 |
| 20260504191144 | 65 | 0 | 0.0 | 0.0 | 0.00 | 0.00 | 0.00 | 68 | 1012.5 |
| 20260504191008 | 65 | 0 | 0.0 | 0.0 | 0.00 | 0.00 | 0.00 | 68 | 1012.5 |
| 20260504190820 | 65 | 0 | 0.0 | 0.0 | 0.00 | 0.00 | 0.00 | 67 | 1012.6 |
| 20260504190640 | 65 | 0 | 0.0 | 0.0 | 0.00 | 0.00 | 0.00 | 67 | 1012.4 |
| 20260504190455 | 65 | 0 | 0.0 | 0.0 | 0.00 | 0.00 | 0.00 | 67 | 1012.5 |
| 20260504190255 | 66 | 0 | 0.0 | 0.0 | 0.00 | 0.00 | 0.00 | 67 | 1012.5 |
| 20260504190115 | 66 | 0 | 0.0 | 2.0 | 0.00 | 0.00 | 0.00 | 67 | 1012.5 |
| 20260504185938 | 66 | 0 | 0.0 | 0.0 | 0.00 | 0.00 | 0.00 | 66 | 1012.4 |
| 20260504185751 | 66 | 0 | 0.0 | 0.0 | 0.00 | 0.00 | 0.00 | 66 | 1012.4 |
| 20260504185555 | 66 | 0 | 0.0 | 0.0 | 0.00 | 0.00 | 0.00 | 66 | 1012.5 |
| 20260504185410 | 66 | 0 | 0.0 | 0.0 | 0.00 | 0.00 | 0.00 | 66 | 1012.4 |
| 20260504185211 | 66 | 0 | 0.0 | 0.0 | 0.00 | 0.00 | 0.00 | 65 | 1012.5 |
| 20260504185155 | 66 | 0 | 0.0 | 0.0 | 0.00 | 0.00 | 0.00 | 65 | 1012.4 |
| 20260504185020 | 67 | 0 | 0.0 | 0.0 | 0.00 | 0.00 | 0.00 | 65 | 1012.5 |
| 20260504184840 | 67 | 0 | 0.0 | 0.0 | 0.00 | 0.00 | 0.00 | 65 | 1012.5 |
| 20260504184655 | 67 | 0 | 0.0 | 1.0 | 0.00 | 0.00 | 0.00 | 65 | 1012.4 |
| 20260504184502 | 67 | 0 | 0.0 | 1.0 | 0.00 | 0.00 | 0.00 | 65 | 1012.5 |
| 20260504184320 | 67 | 0 | 0.0 | 1.0 | 0.00 | 0.00 | 0.00 | 65 | 1012.4 |
| 20260504184135 | 67 | 0 | 0.0 | 1.0 | 0.00 | 0.00 | 0.00 | 65 | 1012.4 |
| 20260504183955 | 67 | 0 | 0.0 | 0.0 | 0.00 | 0.00 | 0.00 | 65 | 1012.5 |
| 20260504183802 | 68 | 0 | 0.0 | 0.0 | 0.00 | 0.00 | 0.00 | 64 | 1012.5 |
| 20260504183610 | 68 | 0 | 0.0 | 0.0 | 0.00 | 0.00 | 0.00 | 64 | 1012.5 |
| 20260504183424 | 68 | 0 | 0.0 | 0.0 | 0.00 | 0.00 | 0.00 | 63 | 1012.5 |
| 20260504183346 | 68 | 0 | 0.0 | 0.0 | 0.00 | 0.00 | 0.00 | 63 | 1012.4 |
| 20260504183230 | 68 | 0 | 0.0 | 0.0 | 0.00 | 0.00 | 0.00 | 63 | 1012.4 |
| 20260504183031 | 68 | 0 | 0.0 | 0.0 | 0.00 | 0.00 | 0.00 | 63 | 1012.4 |
| 20260504182840 | 68 | 0 | 0.0 | 0.0 | 0.00 | 0.00 | 0.00 | 62 | 1012.4 |
| 20260504182650 | 69 | 0 | 0.0 | 0.0 | 0.00 | 0.00 | 0.00 | 62 | 1012.3 |
| 20260504182500 | 69 | 0 | 0.0 | 0.0 | 0.00 | 0.00 | 0.00 | 61 | 1012.4 |
| 20260504182305 | 69 | 0 | 0.0 | 0.0 | 0.00 | 0.00 | 0.00 | 61 | 1012.4 |
| 20260504182125 | 69 | 0 | 0.0 | 0.0 | 0.00 | 0.00 | 0.00 | 61 | 1012.4 |
| 20260504181930 | 69 | 0 | 0.0 | 0.0 | 0.00 | 0.00 | 0.00 | 60 | 1012.3 |
| 20260504181740 | 69 | 0 | 0.0 | 0.0 | 0.00 | 0.00 | 0.00 | 60 | 1012.4 |
| 20260504181540 | 70 | 0 | 0.0 | 1.0 | 0.00 | 0.00 | 0.00 | 60 | 1012.4 |
| 20260504181456 | 70 | 0 | 0.0 | 1.0 | 0.00 | 0.00 | 0.00 | 60 | 1012.4 |
| 20260504181343 | 70 | 0 | 0.0 | 1.0 | 0.00 | 0.00 | 0.00 | 59 | 1012.5 |
| 20260504181204 | 70 | 0 | 0.0 | 0.0 | 0.00 | 0.00 | 0.00 | 59 | 1012.4 |
| 20260504181020 | 70 | 0 | 0.0 | 0.0 | 0.00 | 0.00 | 0.00 | 58 | 1012.3 |
| 20260504180840 | 70 | 0 | 0.0 | 0.0 | 0.00 | 0.00 | 0.00 | 58 | 1012.3 |
| 20260504180648 | 71 | 45 | 0.0 | 0.0 | 0.00 | 0.00 | 0.00 | 58 | 1012.3 |
| 20260504180500 | 71 | 45 | 1.0 | 1.0 | 0.00 | 0.00 | 0.00 | 57 | 1012.3 |
| 20260504180310 | 71 | 45 | 1.0 | 1.0 | 0.00 | 0.00 | 0.00 | 57 | 1012.3 |
| 20260504180125 | 71 | 45 | 1.0 | 5.0 | 0.00 | 0.00 | 0.00 | 57 | 1012.3 |
| 20260504175941 | 71 | 45 | 1.0 | 5.0 | 0.00 | 0.00 | 0.00 | 56 | 1012.3 |
| 20260504175750 | 72 | 45 | 1.0 | 5.0 | 0.00 | 0.00 | 0.00 | 56 | 1012.3 |
| 20260504175605 | 72 | 292 | 1.0 | 2.0 | 0.00 | 0.00 | 0.00 | 56 | 1012.3 |
| 20260504175410 | 72 | 292 | 1.0 | 2.0 | 0.00 | 0.00 | 0.00 | 56 | 1012.3 |
| 20260504175220 | 72 | 270 | 1.0 | 2.0 | 0.00 | 0.00 | 0.00 | 55 | 1012.2 |
| 20260504175029 | 73 | 270 | 1.0 | 2.0 | 0.00 | 0.00 | 0.00 | 54 | 1012.3 |
| 20260504174844 | 73 | 270 | 2.0 | 5.0 | 0.00 | 0.00 | 0.00 | 54 | 1012.2 |
| 20260504174645 | 74 | 270 | 2.0 | 5.0 | 0.00 | 0.00 | 0.00 | 54 | 1012.2 |
| 20260504174442 | 74 | 68 | 2.0 | 5.0 | 0.00 | 0.00 | 0.00 | 53 | 1012.1 |
| 20260504174300 | 74 | 315 | 2.0 | 3.0 | 0.00 | 0.00 | 0.00 | 53 | 1012.2 |
| 20260504174223 | 74 | 315 | 2.0 | 3.0 | 0.00 | 0.00 | 0.00 | 53 | 1012.2 |
| 20260504174114 | 74 | 248 | 2.0 | 6.0 | 0.00 | 0.00 | 0.00 | 53 | 1012.2 |
| 20260504173920 | 75 | 270 | 2.0 | 6.0 | 0.00 | 0.00 | 0.00 | 51 | 1012.2 |
| 20260504173730 | 75 | 22 | 2.0 | 6.0 | 0.00 | 0.00 | 0.00 | 51 | 1012.1 |
| 20260504173535 | 75 | 315 | 1.0 | 4.0 | 0.00 | 0.00 | 0.00 | 50 | 1012.1 |
| 20260504173355 | 75 | 45 | 1.0 | 4.0 | 0.00 | 0.00 | 0.00 | 50 | 1012.2 |
| 20260504173215 | 74 | 45 | 2.0 | 5.0 | 0.00 | 0.00 | 0.00 | 50 | 1012.2 |
| 20260504173025 | 74 | 270 | 2.0 | 5.0 | 0.00 | 0.00 | 0.00 | 51 | 1012.2 |
| 20260504172841 | 75 | 45 | 2.0 | 5.0 | 0.00 | 0.00 | 0.00 | 51 | 1012.2 |
| 20260504172655 | 75 | 292 | 2.0 | 5.0 | 0.00 | 0.00 | 0.00 | 50 | 1012.1 |
| 20260504172520 | 74 | 338 | 2.0 | 5.0 | 0.00 | 0.00 | 0.00 | 51 | 1012.2 |
| 20260504172455 | 74 | 338 | 2.0 | 5.0 | 0.00 | 0.00 | 0.00 | 51 | 1012.2 |
| 20260504172300 | 74 | 45 | 2.0 | 5.0 | 0.00 | 0.00 | 0.00 | 51 | 1012.1 |
| 20260504172115 | 74 | 292 | 2.0 | 5.0 | 0.00 | 0.00 | 0.00 | 52 | 1012.2 |
| 20260504171930 | 74 | 292 | 2.0 | 5.0 | 0.00 | 0.00 | 0.00 | 51 | 1012.2 |
| 20260504171750 | 74 | 45 | 2.0 | 5.0 | 0.00 | 0.00 | 0.00 | 51 | 1012.1 |
| 20260504171605 | 74 | 0 | 3.0 | 5.0 | 0.00 | 0.00 | 0.00 | 51 | 1012.2 |
| 20260504171415 | 74 | 338 | 2.0 | 4.0 | 0.00 | 0.00 | 0.00 | 51 | 1012.2 |
| 20260504171225 | 74 | 338 | 3.0 | 5.0 | 0.00 | 0.00 | 0.00 | 52 | 1012.2 |
| 20260504171033 | 74 | 315 | 3.0 | 5.0 | 0.00 | 0.00 | 0.00 | 53 | 1012.1 |
| 20260504170957 | 74 | 292 | 3.0 | 5.0 | 0.00 | 0.00 | 0.00 | 53 | 1012.1 |
| 20260504170855 | 75 | 292 | 3.0 | 5.0 | 0.00 | 0.00 | 0.00 | 53 | 1012.2 |
| 20260504170700 | 75 | 292 | 2.0 | 5.0 | 0.00 | 0.00 | 0.00 | 52 | 1012.2 |
| 20260504170500 | 75 | 338 | 2.0 | 5.0 | 0.00 | 0.00 | 0.00 | 51 | 1012.2 |
| 20260504170310 | 75 | 338 | 3.0 | 6.0 | 0.00 | 0.00 | 0.00 | 50 | 1012.1 |
| 20260504170130 | 75 | 68 | 3.0 | 6.0 | 0.00 | 0.00 | 0.00 | 50 | 1012.1 |
| 20260504160420 | 73 | 315 | 4.0 | 5.0 | 0.00 | 0.00 | 0.00 | 49 | 1012.1 |
| 20260504160225 | 72 | 248 | 4.0 | 5.0 | 0.00 | 0.00 | 0.00 | 51 | 1012.2 |
| 20260504151126 | 75 | 292 | 4.0 | 7.0 | 0.00 | 0.00 | 0.00 | 50 | 1012.2 |
| 20260504151101 | 75 | 270 | 4.0 | 7.0 | 0.00 | 0.00 | 0.00 | 50 | 1012.2 |
| 20260504150925 | 75 | 270 | 4.0 | 6.0 | 0.00 | 0.00 | 0.00 | 50 | 1012.3 |
| 20260504150728 | 75 | 292 | 4.0 | 7.0 | 0.00 | 0.00 | 0.00 | 49 | 1012.3 |
| 20260504150548 | 75 | 292 | 4.0 | 7.0 | 0.00 | 0.00 | 0.00 | 49 | 1012.3 |
| 20260504150359 | 75 | 292 | 4.0 | 7.0 | 0.00 | 0.00 | 0.00 | 48 | 1012.3 |
| 20260504150215 | 74 | 270 | 3.0 | 6.0 | 0.00 | 0.00 | 0.00 | 47 | 1012.3 |
| 20260504141300 | 73 | 248 | 5.0 | 10.0 | 0.00 | 0.00 | 0.00 | 53 | 1012.8 |